Weather History for Kalamazoo, MI

Change the Weather History Date:

Saturday, March 16, 2013

  Actual Average Record
Temperature  
Mean Temperature 31 °F 36 °F  
Max Temperature 35 °F 45 °F 78 °F (2012)
Min Temperature 26 °F 27 °F 10 °F (1997)
Degree Days  
Heating Degree Days 34 29  
Month to date heating degree days 536 505  
Since 1 July heating degree days 5086 5278  
Cooling Degree Days 0 0  
Month to date cooling degree days 0 0  
Year to date cooling degree days 0 0  
Moisture  
Dew Point 28 °F    
Average Humidity 86    
Maximum Humidity 100    
Minimum Humidity 72    
Precipitation  
Precipitation 0.04 in 0.07 in 2.00 in (1984)
Month to date precipitation 0.54 1.15  
Year to date precipitation 5.20 4.39  
Sea Level Pressure  
Sea Level Pressure 29.86 in    
Wind  
Wind Speed 8 mph (NNE)    
Max Wind Speed 14 mph    
Max Gust Speed 17 mph    
Visibility 6 miles    
Events Rain , Snow    
T = Trace of Precipitation, MM = Missing Value Source: NWS Daily Summary

Daily Weather History Graph

Daily Weather History Graph

Search for Another Location

Airport:

Trip Planner

Search our weather history database for the weather conditions in past years. The results will help you decide how hot, cold, wet, or windy it might be!

Date:

Astronomy

Mar. 16, 2013 Rise Set
Actual Time 7:51 AM EDT 7:50 PM EDT
Civil Twilight 7:24 AM EDT 8:18 PM EDT
Nautical Twilight 6:51 AM EDT 8:50 PM EDT
Astronomical Twilight 6:18 AM EDT 9:23 PM EDT
Moon 10:15 AM EDT (3/16) 12:07 AM EDT (3/16)
Length of Visible Light 12h 54m
Length of Day
11h 58m
Waxing Crescent, 23% of the Moon is Illuminated
Mar 16
Waxing Crescent
Mar 19
First Quarter
Mar 27
Full
Apr 3
Last Quarter
Apr 10
New

Hourly Weather History & Observations

Time (EDT) Temp. Windchill Dew Point Humidity Pressure Visibility Wind Dir Wind Speed Gust Speed Precip Events Conditions
12:53 AM 35.1 °F 31.0 °F 34.0 °F 96% 29.83 in 1.8 mi NE 4.6 mph - 0.00 in Rain Light Rain
1:53 AM 34.0 °F 28.8 °F 33.1 °F 96% 29.78 in 1.2 mi ENE 5.8 mph - 0.00 in   Overcast
2:53 AM 34.0 °F 28.8 °F 33.1 °F 96% 29.78 in 1.8 mi ENE 5.8 mph - N/A   Overcast
3:18 AM 33.8 °F 28.6 °F 33.8 °F 100% 29.74 in 2.0 mi ENE 5.8 mph - 0.00 in Rain Light Rain
3:53 AM 34.0 °F 29.8 °F 33.1 °F 96% 29.78 in 3.0 mi NE 4.6 mph - 0.00 in   Overcast
4:05 AM 33.8 °F 28.6 °F 33.8 °F 100% 29.75 in 2.0 mi NE 5.8 mph - 0.01 in Snow Light Snow
4:13 AM 33.8 °F 28.6 °F 32.0 °F 93% 29.74 in 1.0 mi ENE 5.8 mph - 0.02 in Snow Light Snow
4:28 AM 33.8 °F 29.6 °F 32.0 °F 93% 29.73 in 2.0 mi East 4.6 mph - 0.02 in Snow Light Snow
4:41 AM 33.8 °F 27.7 °F 32.0 °F 93% 29.72 in 3.0 mi East 6.9 mph - 0.03 in Snow Light Snow
4:53 AM 33.1 °F 27.7 °F 32.0 °F 96% 29.73 in 3.0 mi NE 5.8 mph - 0.03 in Rain Light Rain
5:02 AM 33.8 °F 28.6 °F 32.0 °F 93% 29.71 in 5.0 mi NE 5.8 mph - 0.00 in Rain Light Rain
5:42 AM 33.8 °F 28.6 °F 30.2 °F 87% 29.71 in 4.0 mi NE 5.8 mph - 0.01 in Rain Light Freezing Rain
5:49 AM 33.8 °F 28.6 °F 30.2 °F 87% 29.71 in 4.0 mi NE 5.8 mph - 0.01 in Rain Light Freezing Rain
5:53 AM 33.1 °F 28.7 °F 30.9 °F 92% 29.74 in 4.0 mi NE 4.6 mph - 0.01 in Rain Light Freezing Rain
6:53 AM 32.0 °F 25.6 °F 30.9 °F 96% 29.75 in 5.0 mi NE 6.9 mph - 0.00 in   Overcast
7:53 AM 32.0 °F 26.4 °F 30.9 °F 96% 29.76 in 6.0 mi ENE 5.8 mph - N/A   Overcast
8:46 AM 32.0 °F 27.5 °F 28.4 °F 87% 29.75 in 6.0 mi ENE 4.6 mph - N/A   Overcast
8:53 AM 32.0 °F 24.2 °F 28.9 °F 88% 29.78 in 6.0 mi ENE 9.2 mph - N/A   Overcast
9:53 AM 30.9 °F 22.8 °F 27.0 °F 85% 29.82 in 10.0 mi NE 9.2 mph - N/A   Overcast
10:53 AM 30.0 °F 21.1 °F 27.0 °F 88% 29.83 in 7.0 mi NE 10.4 mph 17.3 mph N/A   Overcast
11:12 AM 28.4 °F 18.5 °F 24.8 °F 86% 29.82 in 7.0 mi NNE 11.5 mph - N/A   Overcast
11:53 AM 27.0 °F 18.0 °F 25.0 °F 92% 29.88 in 5.0 mi NNE 9.2 mph - N/A   Overcast
12:53 PM 28.0 °F 17.5 °F 25.0 °F 88% 29.92 in 10.0 mi North 12.7 mph - N/A   Overcast
1:30 PM 28.4 °F 19.7 °F 24.8 °F 86% 29.90 in 10.0 mi North 9.2 mph - N/A   Overcast
1:53 PM 28.9 °F 20.4 °F 25.0 °F 85% 29.94 in 10.0 mi NNE 9.2 mph - N/A   Overcast
2:53 PM 30.0 °F 21.1 °F 26.1 °F 85% 29.95 in 10.0 mi North 10.4 mph - N/A   Overcast
3:53 PM 32.0 °F 23.6 °F 27.0 °F 82% 29.95 in 10.0 mi North 10.4 mph - N/A   Overcast
4:53 PM 32.0 °F 23.0 °F 25.0 °F 75% 29.96 in 10.0 mi North 11.5 mph - N/A   Overcast
5:49 PM 32.0 °F 25.6 °F 24.8 °F 75% 29.96 in 10.0 mi North 6.9 mph - N/A   Overcast
5:53 PM 32.0 °F 26.4 °F 25.0 °F 75% 29.99 in 10.0 mi North 5.8 mph - N/A   Overcast
6:53 PM 32.0 °F 28.7 °F 24.1 °F 73% 30.01 in 10.0 mi North 3.5 mph - N/A   Overcast
7:53 PM 32.0 °F 27.5 °F 24.1 °F 73% 30.01 in 10.0 mi NW 4.6 mph - N/A   Overcast
8:53 PM 32.0 °F 24.8 °F 25.0 °F 75% 30.03 in 10.0 mi West 8.1 mph - N/A   Overcast
9:34 PM 28.4 °F 18.5 °F 21.2 °F 74% 30.01 in 10.0 mi West 11.5 mph - N/A   Overcast
9:53 PM 28.0 °F 20.0 °F 21.9 °F 78% 30.06 in 10.0 mi WNW 8.1 mph - N/A   Scattered Clouds
10:53 PM 27.0 °F 19.5 °F 21.0 °F 78% 30.08 in 10.0 mi NW 6.9 mph - N/A   Clear
11:53 PM 27.0 °F 17.3 °F 21.0 °F 78% 30.10 in 10.0 mi WNW 10.4 mph - N/A   Clear